Regional Weather Roundup
Issued by NWS Cleveland, OH

Home |  Current Version |  Previous Version |  Text Only |  Print | Product List |  Glossary On
Versions: 1 2 3 4 5 6 7 8 9 10 11 12 13 14 15 16 17 18 19 20 21 22 23 24 25 26 27 28 29 30 31 32 33 34 35 36 37 38 39 40 41 42 43 44 45 46 47 48 49 50
995
ASUS41 KCLE 172000
RWRCLE
OHIO REGIONAL WEATHER ROUNDUP
NATIONAL WEATHER SERVICE WILMINGTON, OH
400 PM EDT WED JUL 17 2024

NOTE: "FAIR" INDICATES FEW OR NO CLOUDS BELOW 12,000 FEET WITH NO
SIGNIFICANT WEATHER AND/OR OBSTRUCTIONS TO VISIBILITY.

OHZ001>008-015>018-024>027-034-035-043-044-172100-
   NORTHWEST OHIO

CITY           SKY/WX    TMP DP  RH WIND       PRES   REMARKS
DEFIANCE       FAIR      80  68  66 VRB6      29.91R
FINDLAY        FAIR      86  61  42 NW9       29.89S
TOLEDO EXPRESS FAIR      82  61  48 W8        29.89S
TOLEDO EXEC    FAIR      86  61  42 NW13      29.89S
LIMA           CLOUDY    82  66  58 N7        29.91S
$$

OHZ009>014-019>023-028>033-038-089-172100-
   NORTHEAST OHIO

CITY           SKY/WX    TMP DP  RH WIND       PRES   REMARKS
CLE-HOPKINS    FAIR      82  63  52 NW10      29.88S
CLE-LAKEFRONT  FAIR      79  70  74 N8        29.88S
CUY CO. ARPT   PTSUNNY   75  70  83 N7        29.89F
LORAIN-ELYRIA  FAIR      81  62  52 NW9       29.90S
ASHTABULA      PTSUNNY   78  65  63 W8        29.88F
AKRON-CANTON   PTSUNNY   78  71  79 W5        29.89F
WOOSTER        NOT AVBL
MANSFIELD      FAIR      83  64  52 W12       29.90F
YOUNGSTOWN     PTSUNNY   73  71  93 CALM      29.89S
$$

OHZ042-051>053-060>062-070>072-077>081-172100-
  SOUTHWEST OHIO

CITY           SKY/WX    TMP DP  RH WIND       PRES   REMARKS
CINC-COVINGTON PTSUNNY   87  69  54 W13       29.91F HX  91
CINC-LUNKEN    FAIR      89  69  51 W7G18     29.88F HX  93
HAMILTON       NOT AVBL
DAYTON         NOT AVBL
WRIGHT-PAT AFB MOSUNNY   73  68  86 NE5       29.92S
DAYTON GENERAL HVY RAIN  77  70  79 NW13G29   29.92R
WILMINGTON     PTSUNNY   85  69  58 W14       29.91S
$$

OHZ036-037-039>041-045>050-054>059-063>069-073>076-082>088-172100-
  CENTRAL AND SOUTHEAST OHIO

CITY           SKY/WX    TMP DP  RH WIND       PRES   REMARKS
COLUMBUS       PTSUNNY   81  74  79 SW9       29.89S
OSU AIRPORT    TSTM      71  66  84 N21G47    29.93R VSB 1/4
BOLTON FIELD   PTSUNNY   79  70  73 W8        29.92S
RICKENBACK AFB NOT AVBL
NEWARK         FAIR      82  70  66 SW5       29.88F
MARION         FAIR      82  64  54 NW9       29.90F
LANCASTER      HVY RAIN  69  68  96 VRB3G35   29.91R VSB 1/2
ZANESVILLE     FAIR      85  70  60 W12G18    29.87F
NEW PHILLY     PTSUNNY   74  72  93 SW5       29.89R
$$